Cloud_Cover
17 32 100 100 100 100 100 100 100 14 94 98 96 31 10 6 29 3 0 4 20 84 100 100 100 100 81 96 80 10 4 12 48 40 79 20 53 5 5 3 3 5 5 4 9
80 98 100 100 100 100 100 100 100 40 92 36 43 27 5 69 45 37 20 5 64 27 100 100 100 100 92 30 12 5 37 68 23 5 9 5 10 5 4 3 4 5 5 5 5
100 100 100 100 100 100 100 100 100 70 64 29 36 27 5 57 100 54 5 94 95 35 21 73 100 100 100 100 5 30 4 6 78 3 5 4 0 0 0 0 2 0 15 5 5
100 100 100 100 100 100 100 100 100 100 100 74 31 17 2 70 100 100 46 96 100 98 100 100 100 100 100 90 80 5 2 16 8 5 23 8 1 0 1 2 4 0 0 0 0
100 100 100 100 100 100 100 100 100 100 100 74 26 11 1 30 96 100 100 100 100 88 94 98 100 87 77 57 10 18 8 5 3 5 3 2 2 0 0 0 0 0 0 0 0
100 100 100 100 100 100 100 100 100 100 100 33 15 5 2 76 26 87 100 91 100 100 98 96 100 78 55 44 15 6 0 5 4 22 3 2 1 5 0 0 0 0 0 0 0
100 100 100 100 100 100 100 100 100 100 93 25 0 5 5 3 77 21 93 100 100 100 63 78 85 100 100 98 26 43 88 100 8 37 99 80 8 0 4 0 0 0 0 5 5
100 100 100 100 100 100 100 100 92 24 8 0 0 2 5 1 3 5 5 100 100 92 31 99 20 100 97 93 17 94 100 70 100 8 5 77 25 5 30 76 46 1 0 16 100
100 100 100 100 100 100 100 62 1 0 0 0 2 0 3 5 4 82 3 61 100 100 98 94 80 100 100 94 95 100 99 52 94 100 8 2 2 5 7 8 31 63 26 6 49
100 100 100 100 100 100 87 50 0 0 0 0 1 0 0 5 5 4 90 65 95 70 100 65 97 100 100 96 100 85 93 12 97 100 96 5 4 0 4 5 18 91 89 82 91
0 63 100 100 100 100 15 100 64 5 0 1 2 0 0 0 5 4 4 5 80 100 5 86 97 90 100 96 99 97 100 100 100 73 100 100 97 79 90 44 11 64 87 92 100
46 100 100 100 100 100 20 0 32 0 4 3 5 5 0 0 0 0 3 5 5 48 99 100 89 48 100 100 100 100 100 98 100 95 62 25 96 35 61 97 90 100 100 100 100
54 100 100 100 17 32 0 0 0 0 0 0 1 5 5 1 0 0 1 5 12 40 88 91 79 80 95 83 64 86 100 100 100 100 100 86 100 71 92 100 100 100 100 100 100
55 100 100 100 0 0 0 0 0 0 0 0 0 0 0 0 0 3 6 2 2 61 100 88 6 48 55 100 100 94 48 100 100 99 100 100 100 79 100 100 100 100 100 100 100
67 100 100 100 1 0 0 0 0 0 0 0 0 0 0 2 2 0 22 98 5 14 51 50 58 33 87 74 80 100 100 100 100 100 100 100 100 100 100 100 98 100 100 100 100
85 100 99 34 4 0 0 0 0 0 0 0 0 0 0 0 0 0 35 5 82 59 5 40 100 58 8 74 42 100 100 100 100 100 100 100 100 100 100 100 100 100 100 100 96
100 100 91 0 0 0 0 0 0 0 0 0 0 0 0 0 0 0 0 0 7 3 5 5 5 4 8 88 78 98 98 96 100 100 82 74 100 100 100 100 100 100 100 100 100
98 2 15 0 0 0 0 0 0 0 0 0 0 0 0 0 0 0 0 0 0 0 0 0 0 4 38 0 5 10 94 97 30 63 100 73 51 100 100 100 100 100 100 100 100
4 0 0 0 0 0 0 0 0 0 0 0 0 0 0 0 0 0 0 0 0 0 0 0 0 0 2 95 70 11 5 5 0 2 100 100 31 100 100 100 100 100 100 100 100
0 0 0 0 0 0 0 0 0 0 0 0 0 0 0 0 0 0 0 0 0 0 0 0 0 0 0 48 64 5 46 12 5 0 1 94 100 100 100 100 100 100 100 100 100
0 0 0 0 0 0 0 0 0 0 0 0 0 0 0 0 0 0 0 0 0 0 0 0 0 0 0 0 0 1 1 4 2 0 0 0 37 100 100 100 100 100 100 100 100
0 0 0 0 0 0 0 0 0 0 0 0 0 0 0 0 0 0 3 2 2 0 0 0 0 0 0 0 0 0 0 1 5 2 0 0 0 41 100 100 100 100 100 100 98
0 0 0 0 0 0 0 0 0 0 1 0 1 1 1 3 3 5 1 0 0 5 5 0 0 5 99 40 4 5 3 1 0 0 0 0 0 78 71 100 100 100 100 100 100
0 0 0 0 0 0 0 0 0 0 0 5 5 99 100 86 44 5 5 5 4 5 2 1 4 3 5 46 72 71 94 92 88 18 4 0 2 66 100 100 100 100 100 100 100
0 0 0 0 0 0 0 0 0 0 4 3 3 5 42 100 100 100 71 54 41 83 100 54 5 5 85 100 20 72 69 60 100 96 60 5 3 13 40 82 100 100 100 100 100
0 0 0 0 0 0 0 0 0 0 5 5 5 46 100 100 97 81 98 100 100 100 100 99 7 3 5 73 87 6 5 5 5 5 54 27 29 1 25 100 100 100 100 66 13
0 0 0 0 0 0 0 0 0 3 4 5 53 67 12 12 4 16 97 95 70 50 80 97 89 61 100 88 6 25 82 11 2 1 9 60 83 52 49 100 92 100 97 79 22